sat.trackr.live / text

‹ back to catalog

STARLINK-5745

NORAD 55575 · 2023-020G

PAYLOAD ACTIVE UNKNOWN

§ Identity

Operator
Country
US
Launch date
2023-02-12
Launch site
AFETR
Launch vehicle
Mass (kg)
RCS (m²)

Purposes: comms

External: N2YO · Heavens-Above · Gunter

§ Orbital elements

Epoch: 2026-09-20T16:23:41.889408Z

Period
94.27 min
Inclination
43.0050°
Eccentricity
0.0001296
Mean motion
15.27576474 rev/d
Perigee alt
482.2 km
Apogee alt
483.9 km
Semi-major
6,861.2 km
B*
-4.2774e-6
RAAN
347.4686°
Arg perigee
289.1913°
Mean anomaly
70.8798°
Rev number
19,869

§ Raw data

STARLINK-57451 55575U 23020G   26263.68312372 -.00000380  00000+0 -42774-5 0  99962 55575  43.0050 347.4686 0001296 289.1913  70.8798 15.27576474198690

JSON: /api/v1/satellites/55575 · /tle

For live sub-satellite position, see the globe view (requires WebGL).

§ Visibility from observer

Set your observer location to see the next 7 days of passes ≥ 10°. The values pass through the URL so the page stays shareable.

No JS? Fill the form by hand. The geolocation button needs JavaScript.